| time (UTC) | temp C | wind direction | speed KPH | gust KPH | rain 1hr cm | rain 24hr cm | rain mn cm | humidity % | barometer mb |
| 20260508185028 | 11 | 245 | 14.5 | 33.8 | 0.00 | 0.20 | 0.10 | 57 | 1000.7 |
| 20260508184526 | 11 | 265 | 17.7 | 35.4 | 0.00 | 0.20 | 0.10 | 57 | 1000.7 |
| 20260508184024 | 11 | 239 | 16.1 | 37.0 | 0.00 | 0.20 | 0.10 | 57 | 1000.8 |
| 20260508183522 | 11 | 256 | 17.7 | 35.4 | 0.00 | 0.20 | 0.10 | 56 | 1000.7 |
| 20260508183020 | 11 | 247 | 20.9 | 40.2 | 0.00 | 0.20 | 0.10 | 56 | 1000.6 |
| 20260508182519 | 11 | 253 | 16.1 | 33.8 | 0.00 | 0.20 | 0.10 | 56 | 1000.7 |
| 20260508182016 | 11 | 254 | 20.9 | 43.5 | 0.00 | 0.20 | 0.10 | 55 | 1000.6 |
| 20260508181534 | 11 | 258 | 24.1 | 46.7 | 0.00 | 0.23 | 0.10 | 56 | 1000.7 |
| 20260508181032 | 11 | 242 | 20.9 | 38.6 | 0.00 | 0.23 | 0.10 | 58 | 1000.7 |
| 20260508180531 | 11 | 257 | 20.9 | 49.9 | 0.00 | 0.23 | 0.10 | 59 | 1000.7 |
| 20260508180028 | 11 | 261 | 22.5 | 40.2 | 0.00 | 0.23 | 0.10 | 60 | 1000.7 |
| 20260508175526 | 11 | 257 | 20.9 | 38.6 | 0.00 | 0.23 | 0.10 | 61 | 1000.7 |
| 20260508175024 | 11 | 251 | 24.1 | 38.6 | 0.00 | 0.23 | 0.10 | 60 | 1000.8 |
| 20260508174522 | 11 | 266 | 24.1 | 40.2 | 0.00 | 0.23 | 0.10 | 61 | 1000.8 |
| 20260508174021 | 11 | 254 | 22.5 | 49.9 | 0.00 | 0.23 | 0.10 | 60 | 1000.7 |
| 20260508173518 | 11 | 255 | 19.3 | 38.6 | 0.00 | 0.25 | 0.10 | 60 | 1000.8 |
| 20260508173017 | 11 | 260 | 19.3 | 40.2 | 0.00 | 0.25 | 0.10 | 61 | 1000.9 |
| 20260508172535 | 11 | 247 | 17.7 | 38.6 | 0.00 | 0.28 | 0.10 | 60 | 1000.8 |
| 20260508172033 | 11 | 254 | 19.3 | 41.8 | 0.00 | 0.30 | 0.10 | 60 | 1000.9 |
| 20260508171531 | 11 | 254 | 11.3 | 27.4 | 0.00 | 0.33 | 0.10 | 60 | 1000.9 |
| 20260508171029 | 11 | 254 | 20.9 | 43.5 | 0.00 | 0.33 | 0.10 | 60 | 1000.9 |
| 20260508170531 | 11 | 243 | 19.3 | 38.6 | 0.00 | 0.33 | 0.10 | 60 | 1000.9 |
| 20260508170025 | 11 | 248 | 19.3 | 51.5 | 0.00 | 0.33 | 0.10 | 61 | 1000.8 |
| 20260508165524 | 11 | 249 | 16.1 | 29.0 | 0.00 | 0.33 | 0.10 | 61 | 1000.9 |
| 20260508165021 | 10 | 252 | 20.9 | 56.3 | 0.00 | 0.33 | 0.10 | 60 | 1000.9 |
| 20260508164519 | 10 | 256 | 17.7 | 38.6 | 0.00 | 0.33 | 0.10 | 61 | 1001.0 |
| 20260508164018 | 10 | 253 | 25.7 | 56.3 | 0.00 | 0.33 | 0.10 | 61 | 1001.0 |
| 20260508163536 | 10 | 256 | 22.5 | 41.8 | 0.00 | 0.33 | 0.10 | 62 | 1001.1 |
| 20260508163034 | 10 | 254 | 24.1 | 43.5 | 0.00 | 0.33 | 0.10 | 62 | 1001.0 |
| 20260508162531 | 10 | 258 | 22.5 | 41.8 | 0.00 | 0.33 | 0.10 | 63 | 1001.1 |
| 20260508162029 | 10 | 262 | 17.7 | 41.8 | 0.00 | 0.33 | 0.10 | 64 | 1001.1 |
| 20260508161528 | 10 | 246 | 19.3 | 37.0 | 0.00 | 0.33 | 0.10 | 64 | 1001.1 |
| 20260508161026 | 10 | 255 | 20.9 | 38.6 | 0.00 | 0.33 | 0.10 | 65 | 1001.1 |
| 20260508160524 | 10 | 274 | 20.9 | 43.5 | 0.00 | 0.33 | 0.10 | 65 | 1001.2 |
| 20260508160022 | 10 | 254 | 19.3 | 38.6 | 0.00 | 0.33 | 0.10 | 67 | 1001.1 |
| 20260508155520 | 10 | 256 | 24.1 | 51.5 | 0.00 | 0.33 | 0.10 | 67 | 1001.1 |
| 20260508155018 | 10 | 263 | 22.5 | 43.5 | 0.00 | 0.33 | 0.10 | 67 | 1001.1 |
| 20260508154516 | 9 | 248 | 14.5 | 33.8 | 0.00 | 0.33 | 0.10 | 70 | 1001.1 |
| 20260508154034 | 8 | 251 | 17.7 | 37.0 | 0.00 | 0.33 | 0.10 | 70 | 1001.3 |
| 20260508153532 | 9 | 249 | 19.3 | 41.8 | 0.00 | 0.33 | 0.10 | 70 | 1001.0 |
| 20260508153030 | 8 | 235 | 12.9 | 33.8 | 0.00 | 0.33 | 0.10 | 71 | 1001.3 |
| 20260508152528 | 8 | 260 | 17.7 | 48.3 | 0.00 | 0.33 | 0.10 | 72 | 1001.3 |
| 20260508152026 | 8 | 250 | 22.5 | 51.5 | 0.00 | 0.33 | 0.10 | 71 | 1001.3 |
| 20260508151524 | 8 | 255 | 19.3 | 37.0 | 0.00 | 0.33 | 0.10 | 72 | 1001.3 |
| 20260508151023 | 8 | 257 | 17.7 | 38.6 | 0.00 | 0.33 | 0.10 | 73 | 1001.2 |
| 20260508150521 | 8 | 257 | 19.3 | 38.6 | 0.00 | 0.33 | 0.10 | 73 | 1001.3 |
| 20260508150019 | 8 | 255 | 19.3 | 40.2 | 0.00 | 0.33 | 0.10 | 72 | 1001.3 |
| 20260508145517 | 8 | 252 | 16.1 | 51.5 | 0.00 | 0.33 | 0.10 | 73 | 1001.1 |
| 20260508145036 | 8 | 245 | 14.5 | 30.6 | 0.00 | 0.33 | 0.10 | 74 | 1001.2 |
| 20260508144533 | 8 | 251 | 17.7 | 37.0 | 0.00 | 0.33 | 0.10 | 74 | 1001.1 |
| 20260508144032 | 8 | 250 | 16.1 | 41.8 | 0.00 | 0.33 | 0.10 | 74 | 1001.1 |
| 20260508143530 | 8 | 252 | 20.9 | 46.7 | 0.00 | 0.33 | 0.10 | 73 | 1001.2 |
| 20260508143028 | 8 | 235 | 20.9 | 49.9 | 0.00 | 0.33 | 0.10 | 74 | 1001.0 |
| 20260508142526 | 8 | 254 | 14.5 | 30.6 | 0.00 | 0.33 | 0.10 | 75 | 1001.1 |
| 20260508142025 | 8 | 259 | 22.5 | 56.3 | 0.00 | 0.33 | 0.10 | 75 | 1001.0 |
| 20260508141523 | 8 | 249 | 20.9 | 51.5 | 0.00 | 0.33 | 0.10 | 75 | 1001.0 |
| 20260508141020 | 8 | 233 | 19.3 | 48.3 | 0.00 | 0.33 | 0.10 | 75 | 1001.0 |
| 20260508140519 | 8 | 244 | 20.9 | 48.3 | 0.00 | 0.33 | 0.10 | 76 | 1000.9 |
| 20260508140018 | 8 | 239 | 14.5 | 30.6 | 0.00 | 0.33 | 0.10 | 77 | 1000.9 |
| 20260508135536 | 8 | 258 | 17.7 | 33.8 | 0.00 | 0.33 | 0.10 | 77 | 1001.0 |
| 20260508135034 | 8 | 259 | 17.7 | 38.6 | 0.00 | 0.33 | 0.10 | 77 | 1000.9 |
| 20260508134532 | 8 | 259 | 19.3 | 43.5 | 0.00 | 0.33 | 0.10 | 76 | 1001.0 |
| 20260508134030 | 8 | 252 | 14.5 | 33.8 | 0.00 | 0.33 | 0.10 | 77 | 1001.0 |
| 20260508133529 | 8 | 253 | 14.5 | 35.4 | 0.00 | 0.33 | 0.10 | 77 | 1001.0 |
| 20260508133027 | 8 | 250 | 14.5 | 35.4 | 0.00 | 0.33 | 0.10 | 78 | 1001.1 |
| 20260508132525 | 7 | 246 | 20.9 | 41.8 | 0.00 | 0.33 | 0.10 | 78 | 1001.1 |
| 20260508132023 | 7 | 245 | 17.7 | 35.4 | 0.00 | 0.33 | 0.10 | 79 | 1001.1 |
| 20260508131522 | 7 | 244 | 17.7 | 43.5 | 0.00 | 0.33 | 0.10 | 79 | 1001.2 |
| 20260508131020 | 7 | 248 | 19.3 | 48.3 | 0.00 | 0.33 | 0.10 | 80 | 1001.1 |
| 20260508130518 | 7 | 249 | 14.5 | 29.0 | 0.00 | 0.33 | 0.10 | 80 | 1001.1 |
| 20260508130036 | 7 | 254 | 17.7 | 43.5 | 0.00 | 0.33 | 0.10 | 79 | 1001.0 |
| 20260508125534 | 7 | 254 | 16.1 | 35.4 | 0.00 | 0.33 | 0.10 | 79 | 1001.0 |
| 20260508125032 | 7 | 260 | 17.7 | 38.6 | 0.00 | 0.33 | 0.10 | 80 | 1000.9 |
| 20260508124530 | 7 | 258 | 17.7 | 38.6 | 0.00 | 0.33 | 0.10 | 80 | 1000.7 |
| 20260508124029 | 7 | 246 | 14.5 | 43.5 | 0.00 | 0.33 | 0.10 | 81 | 1000.6 |
| 20260508123527 | 7 | 251 | 20.9 | 40.2 | 0.00 | 0.33 | 0.10 | 82 | 1000.6 |
| 20260508123025 | 6 | 262 | 19.3 | 40.2 | 0.00 | 0.33 | 0.10 | 82 | 1000.5 |
| 20260508122523 | 6 | 255 | 16.1 | 29.0 | 0.00 | 0.33 | 0.10 | 83 | 1000.4 |
| 20260508122021 | 6 | 247 | 14.5 | 29.0 | 0.00 | 0.33 | 0.10 | 84 | 1000.5 |
| 20260508121519 | 6 | 259 | 17.7 | 38.6 | 0.00 | 0.33 | 0.10 | 84 | 1000.4 |
| 20260508121017 | 6 | 254 | 16.1 | 35.4 | 0.00 | 0.33 | 0.10 | 84 | 1000.4 |
| 20260508120516 | 6 | 258 | 16.1 | 43.5 | 0.00 | 0.33 | 0.10 | 85 | 1000.4 |
| 20260508120035 | 6 | 258 | 14.5 | 33.8 | 0.00 | 0.33 | 0.10 | 85 | 1000.2 |
| 20260508115532 | 6 | 261 | 14.5 | 33.8 | 0.00 | 0.33 | 0.10 | 86 | 1000.2 |
| 20260508115030 | 6 | 251 | 16.1 | 40.2 | 0.00 | 0.33 | 0.10 | 87 | 1000.2 |
| 20260508114529 | 6 | 255 | 16.1 | 29.0 | 0.00 | 0.33 | 0.10 | 87 | 1000.3 |
| 20260508114026 | 6 | 261 | 14.5 | 27.4 | 0.00 | 0.33 | 0.10 | 88 | 1000.2 |
| 20260508113524 | 6 | 260 | 16.1 | 27.4 | 0.00 | 0.33 | 0.10 | 88 | 1000.2 |
| 20260508113022 | 6 | 244 | 16.1 | 33.8 | 0.00 | 0.33 | 0.10 | 87 | 1000.2 |
| 20260508112520 | 6 | 258 | 12.9 | 30.6 | 0.00 | 0.33 | 0.10 | 87 | 1000.1 |
| 20260508112016 | 6 | 253 | 16.1 | 29.0 | 0.00 | 0.33 | 0.10 | 86 | 999.9 |
| 20260508111534 | 6 | 257 | 14.5 | 35.4 | 0.00 | 0.33 | 0.10 | 86 | 1000.0 |
| 20260508111033 | 6 | 243 | 16.1 | 30.6 | 0.00 | 0.33 | 0.10 | 86 | 1000.0 |
| 20260508110531 | 6 | 244 | 14.5 | 25.7 | 0.00 | 0.33 | 0.10 | 86 | 999.9 |
| 20260508110029 | 6 | 250 | 16.1 | 33.8 | 0.00 | 0.33 | 0.10 | 86 | 999.8 |
| 20260508105527 | 6 | 249 | 16.1 | 37.0 | 0.00 | 0.33 | 0.10 | 85 | 999.7 |
| 20260508105025 | 6 | 252 | 17.7 | 46.7 | 0.00 | 0.33 | 0.10 | 84 | 999.8 |
| 20260508104523 | 6 | 254 | 16.1 | 43.5 | 0.00 | 0.33 | 0.10 | 85 | 999.6 |
| 20260508104020 | 7 | 242 | 16.1 | 40.2 | 0.00 | 0.33 | 0.10 | 85 | 999.6 |
| 20260508103519 | 7 | 252 | 16.1 | 41.8 | 0.00 | 0.33 | 0.10 | 85 | 999.5 |
| 20260508103018 | 7 | 257 | 19.3 | 40.2 | 0.00 | 0.33 | 0.10 | 85 | 999.5 |
| 20260508102535 | 7 | 245 | 20.9 | 41.8 | 0.00 | 0.33 | 0.10 | 85 | 999.7 |
| 20260508102033 | 7 | 234 | 17.7 | 41.8 | 0.00 | 0.33 | 0.10 | 85 | 999.5 |
| 20260508101531 | 7 | 245 | 16.1 | 38.6 | 0.00 | 0.33 | 0.10 | 85 | 999.5 |
| 20260508101030 | 7 | 245 | 16.1 | 37.0 | 0.00 | 0.33 | 0.10 | 86 | 999.6 |
| 20260508100528 | 7 | 248 | 16.1 | 37.0 | 0.00 | 0.33 | 0.10 | 86 | 999.5 |
| 20260508100025 | 7 | 243 | 20.9 | 43.5 | 0.00 | 0.33 | 0.10 | 85 | 999.5 |
| 20260508095525 | 7 | 249 | 16.1 | 48.3 | 0.00 | 0.33 | 0.10 | 85 | 999.6 |
| 20260508095022 | 7 | 258 | 19.3 | 48.3 | 0.00 | 0.33 | 0.10 | 86 | 999.6 |
| 20260508094521 | 7 | 257 | 17.7 | 37.0 | 0.00 | 0.33 | 0.10 | 86 | 999.5 |
| 20260508094019 | 7 | 247 | 20.9 | 46.7 | 0.00 | 0.33 | 0.10 | 86 | 999.4 |
| 20260508093517 | 7 | 243 | 20.9 | 54.7 | 0.00 | 0.33 | 0.10 | 86 | 999.5 |
| 20260508093036 | 7 | 260 | 16.1 | 37.0 | 0.00 | 0.33 | 0.10 | 87 | 999.4 |
| 20260508092534 | 7 | 242 | 17.7 | 41.8 | 0.00 | 0.33 | 0.10 | 87 | 999.1 |
| 20260508092032 | 7 | 256 | 17.7 | 37.0 | 0.00 | 0.33 | 0.10 | 87 | 999.1 |
| 20260508091530 | 7 | 247 | 16.1 | 38.6 | 0.00 | 0.33 | 0.10 | 87 | 999.2 |
| 20260508091029 | 7 | 251 | 16.1 | 41.8 | 0.00 | 0.33 | 0.10 | 87 | 999.1 |
| 20260508090526 | 7 | 232 | 16.1 | 37.0 | 0.00 | 0.33 | 0.10 | 87 | 999.0 |
| 20260508090025 | 7 | 245 | 19.3 | 46.7 | 0.00 | 0.33 | 0.10 | 87 | 999.0 |
| 20260508085523 | 7 | 247 | 19.3 | 40.2 | 0.00 | 0.33 | 0.10 | 88 | 999.1 |
| 20260508085021 | 7 | 240 | 16.1 | 43.5 | 0.00 | 0.33 | 0.10 | 88 | 999.1 |
| 20260508084519 | 7 | 236 | 20.9 | 41.8 | 0.00 | 0.33 | 0.10 | 88 | 999.0 |
| 20260508084017 | 7 | 225 | 17.7 | 37.0 | 0.00 | 0.33 | 0.10 | 89 | 999.0 |
| 20260508083536 | 7 | 241 | 16.1 | 37.0 | 0.00 | 0.33 | 0.10 | 89 | 999.1 |
| 20260508083034 | 7 | 240 | 16.1 | 33.8 | 0.00 | 0.33 | 0.10 | 89 | 999.2 |
| 20260508082531 | 7 | 241 | 14.5 | 37.0 | 0.00 | 0.33 | 0.10 | 89 | 999.2 |
| 20260508082030 | 7 | 253 | 17.7 | 38.6 | 0.00 | 0.33 | 0.10 | 89 | 999.2 |
| 20260508081528 | 7 | 252 | 19.3 | 38.6 | 0.00 | 0.33 | 0.10 | 89 | 999.3 |
| 20260508081027 | 7 | 214 | 19.3 | 37.0 | 0.00 | 0.33 | 0.10 | 89 | 999.2 |
| 20260508080525 | 7 | 239 | 17.7 | 48.3 | 0.00 | 0.33 | 0.10 | 90 | 999.1 |
| 20260508080023 | 7 | 255 | 12.9 | 27.4 | 0.00 | 0.33 | 0.10 | 90 | 999.1 |
| 20260508075522 | 7 | 244 | 19.3 | 43.5 | 0.00 | 0.33 | 0.10 | 90 | 999.0 |
| 20260508075019 | 7 | 244 | 16.1 | 38.6 | 0.00 | 0.33 | 0.10 | 90 | 998.9 |
| 20260508074518 | 7 | 232 | 16.1 | 35.4 | 0.00 | 0.33 | 0.10 | 90 | 998.9 |
| 20260508074016 | 7 | 241 | 16.1 | 37.0 | 0.00 | 0.33 | 0.10 | 90 | 999.0 |
| 20260508073534 | 7 | 241 | 16.1 | 37.0 | 0.00 | 0.33 | 0.10 | 90 | 999.1 |
| 20260508072530 | 7 | 243 | 17.7 | 35.4 | 0.00 | 0.33 | 0.10 | 90 | 999.1 |
| 20260508072028 | 7 | 234 | 19.3 | 48.3 | 0.00 | 0.33 | 0.10 | 90 | 999.3 |
| 20260508071527 | 7 | 236 | 14.5 | 33.8 | 0.00 | 0.33 | 0.10 | 91 | 999.4 |
| 20260508071025 | 7 | 242 | 16.1 | 43.5 | 0.00 | 0.33 | 0.10 | 91 | 999.3 |
| 20260508070523 | 7 | 249 | 16.1 | 41.8 | 0.00 | 0.33 | 0.10 | 91 | 999.4 |
| 20260508070021 | 7 | 237 | 19.3 | 38.6 | 0.00 | 0.33 | 0.10 | 91 | 999.4 |
| 20260508065519 | 7 | 243 | 17.7 | 41.8 | 0.03 | 0.33 | 0.10 | 91 | 999.3 |
| 20260508065018 | 7 | 234 | 16.1 | 38.6 | 0.03 | 0.33 | 0.10 | 91 | 999.4 |
| 20260508064516 | 7 | 246 | 17.7 | 40.2 | 0.05 | 0.33 | 0.10 | 92 | 999.4 |
| 20260508064035 | 7 | 242 | 16.1 | 40.2 | 0.05 | 0.33 | 0.10 | 92 | 999.4 |
| 20260508063533 | 7 | 252 | 17.7 | 41.8 | 0.05 | 0.33 | 0.10 | 92 | 999.4 |
| 20260508063031 | 7 | 257 | 16.1 | 38.6 | 0.05 | 0.33 | 0.10 | 93 | 999.4 |
| 20260508062529 | 7 | 232 | 14.5 | 33.8 | 0.05 | 0.33 | 0.10 | 93 | 999.5 |
| 20260508062027 | 7 | 242 | 12.9 | 33.8 | 0.05 | 0.33 | 0.10 | 94 | 999.5 |
| 20260508061525 | 7 | 229 | 12.9 | 27.4 | 0.05 | 0.33 | 0.10 | 94 | 999.6 |
| 20260508061024 | 7 | 246 | 14.5 | 37.0 | 0.05 | 0.33 | 0.08 | 95 | 999.7 |
| 20260508060522 | 7 | 240 | 14.5 | 29.0 | 0.05 | 0.33 | 0.08 | 95 | 999.9 |
| 20260508060020 | 7 | 234 | 14.5 | 33.8 | 0.05 | 0.33 | 0.08 | 96 | 999.9 |
| 20260508055518 | 7 | 238 | 14.5 | 35.4 | 0.03 | 0.30 | 0.08 | 96 | 999.8 |
| 20260508055016 | 7 | 237 | 14.5 | 38.6 | 0.03 | 0.30 | 0.05 | 95 | 999.9 |
| 20260508054535 | 7 | 238 | 14.5 | 30.6 | 0.00 | 0.28 | 0.05 | 95 | 999.9 |
| 20260508054033 | 7 | 241 | 12.9 | 27.4 | 0.00 | 0.28 | 0.05 | 95 | 999.9 |
| 20260508053532 | 7 | 250 | 16.1 | 35.4 | 0.00 | 0.28 | 0.05 | 94 | 999.9 |
| 20260508053030 | 7 | 252 | 17.7 | 37.0 | 0.00 | 0.28 | 0.05 | 95 | 999.9 |
| 20260508052528 | 7 | 241 | 12.9 | 30.6 | 0.00 | 0.28 | 0.05 | 95 | 1000.0 |
| 20260508052025 | 7 | 258 | 16.1 | 38.6 | 0.00 | 0.28 | 0.05 | 95 | 999.9 |
| 20260508051525 | 7 | 257 | 16.1 | 29.0 | 0.00 | 0.28 | 0.05 | 95 | 999.8 |
| 20260508051022 | 7 | 256 | 11.3 | 25.7 | 0.03 | 0.28 | 0.05 | 96 | 999.8 |
| 20260508050520 | 7 | 243 | 16.1 | 30.6 | 0.03 | 0.28 | 0.05 | 96 | 999.9 |
| 20260508050019 | 7 | 251 | 16.1 | 37.0 | 0.03 | 0.28 | 0.05 | 96 | 1000.0 |
| 20260508045517 | 7 | 252 | 16.1 | 29.0 | 0.03 | 0.28 | 0.05 | 97 | 1000.0 |
| 20260508045036 | 7 | 244 | 16.1 | 35.4 | 0.03 | 0.28 | 0.05 | 97 | 1000.1 |
| 20260508044534 | 7 | 261 | 14.5 | 33.8 | 0.03 | 0.28 | 0.05 | 97 | 1000.1 |
| 20260508044032 | 7 | 260 | 12.9 | 30.6 | 0.03 | 0.28 | 0.05 | 97 | 1000.0 |
| 20260508043530 | 7 | 250 | 11.3 | 24.1 | 0.03 | 0.28 | 0.05 | 97 | 1000.2 |
| 20260508043028 | 7 | 236 | 12.9 | 33.8 | 0.03 | 0.28 | 0.03 | 97 | 1000.3 |
| 20260508042526 | 7 | 269 | 14.5 | 41.8 | 0.03 | 0.28 | 0.03 | 97 | 1000.3 |
| 20260508042025 | 7 | 239 | 11.3 | 24.1 | 0.03 | 0.28 | 0.03 | 97 | 1000.4 |
| 20260508041523 | 7 | 254 | 11.3 | 35.4 | 0.03 | 0.28 | 0.03 | 97 | 1000.4 |
| 20260508041021 | 7 | 241 | 14.5 | 35.4 | 0.00 | 0.25 | 0.03 | 97 | 1000.4 |
| 20260508040520 | 7 | 236 | 11.3 | 27.4 | 0.03 | 0.25 | 0.03 | 97 | 1000.3 |
| 20260508040018 | 7 | 234 | 12.9 | 24.1 | 0.00 | 0.25 | 0.00 | 97 | 1000.4 |
| 20260508035536 | 7 | 249 | 11.3 | 33.8 | 0.03 | 0.25 | 0.00 | 97 | 1000.5 |
| 20260508035034 | 7 | 244 | 12.9 | 25.7 | 0.03 | 0.25 | 0.00 | 96 | 1000.5 |
| 20260508034533 | 7 | 228 | 12.9 | 30.6 | 0.03 | 0.25 | 0.00 | 96 | 1000.4 |
| 20260508034031 | 7 | 240 | 16.1 | 37.0 | 0.03 | 0.25 | 0.00 | 96 | 1000.4 |
| 20260508033529 | 7 | 246 | 14.5 | 33.8 | 0.03 | 0.25 | 0.00 | 96 | 1000.5 |
| 20260508033027 | 7 | 251 | 12.9 | 33.8 | 0.03 | 0.25 | 0.00 | 95 | 1000.3 |
| 20260508032525 | 7 | 243 | 12.9 | 27.4 | 0.03 | 0.25 | 0.00 | 95 | 1000.3 |
| 20260508032023 | 7 | 241 | 14.5 | 38.6 | 0.03 | 0.25 | 0.00 | 95 | 1000.3 |
| 20260508031521 | 7 | 244 | 14.5 | 37.0 | 0.03 | 0.25 | 0.00 | 94 | 1000.3 |
| 20260508031020 | 7 | 249 | 14.5 | 37.0 | 0.03 | 0.25 | 0.00 | 94 | 1000.3 |
| 20260508030518 | 7 | 252 | 14.5 | 35.4 | 0.00 | 0.23 | 0.00 | 93 | 1000.4 |
| 20260508030016 | 7 | 236 | 12.9 | 33.8 | 0.00 | 0.23 | 0.23 | 92 | 1000.5 |
| 20260508025534 | 7 | 241 | 14.5 | 30.6 | 0.00 | 0.23 | 0.23 | 91 | 1000.6 |
| 20260508025033 | 7 | 239 | 14.5 | 38.6 | 0.00 | 0.23 | 0.23 | 91 | 1000.6 |
| 20260508024531 | 7 | 240 | 16.1 | 30.6 | 0.00 | 0.23 | 0.23 | 90 | 1000.7 |
| 20260508024029 | 7 | 240 | 14.5 | 33.8 | 0.00 | 0.23 | 0.23 | 88 | 1000.8 |
| 20260508023527 | 7 | 253 | 11.3 | 29.0 | 0.00 | 0.23 | 0.23 | 87 | 1000.8 |
| 20260508023025 | 8 | 254 | 16.1 | 30.6 | 0.00 | 0.23 | 0.23 | 86 | 1000.9 |
| 20260508022524 | 8 | 232 | 16.1 | 46.7 | 0.00 | 0.23 | 0.23 | 85 | 1001.0 |
| 20260508022022 | 8 | 247 | 17.7 | 41.8 | 0.00 | 0.23 | 0.23 | 85 | 1000.9 |
| 20260508021520 | 8 | 232 | 12.9 | 27.4 | 0.00 | 0.23 | 0.23 | 84 | 1000.9 |
| 20260508021018 | 8 | 232 | 12.9 | 27.4 | 0.00 | 0.23 | 0.23 | 84 | 1000.9 |
| 20260508020517 | 8 | 224 | 17.7 | 37.0 | 0.00 | 0.23 | 0.23 | 84 | 1000.9 |
| 20260508020035 | 8 | 249 | 19.3 | 43.5 | 0.00 | 0.23 | 0.23 | 84 | 1000.9 |
| 20260508015533 | 8 | 250 | 17.7 | 41.8 | 0.00 | 0.23 | 0.23 | 84 | 1001.0 |
| 20260508015031 | 8 | 247 | 14.5 | 38.6 | 0.00 | 0.23 | 0.23 | 84 | 1000.9 |
| 20260508014529 | 8 | 226 | 16.1 | 41.8 | 0.00 | 0.23 | 0.23 | 84 | 1001.0 |
| 20260508014027 | 8 | 247 | 17.7 | 46.7 | 0.00 | 0.23 | 0.23 | 84 | 1001.0 |
| 20260508013526 | 8 | 228 | 19.3 | 41.8 | 0.00 | 0.23 | 0.23 | 85 | 1001.1 |
| 20260508013024 | 8 | 253 | 12.9 | 30.6 | 0.00 | 0.23 | 0.23 | 87 | 1001.1 |
| 20260508012522 | 8 | 233 | 14.5 | 38.6 | 0.00 | 0.23 | 0.23 | 87 | 1001.3 |
| 20260508012021 | 8 | 239 | 11.3 | 25.7 | 0.00 | 0.23 | 0.23 | 88 | 1001.2 |
| 20260508011518 | 8 | 236 | 12.9 | 25.7 | 0.00 | 0.23 | 0.23 | 88 | 1001.3 |
| 20260508011016 | 8 | 216 | 14.5 | 29.0 | 0.00 | 0.23 | 0.23 | 87 | 1001.2 |
| 20260508010535 | 8 | 247 | 14.5 | 37.0 | 0.00 | 0.23 | 0.23 | 87 | 1001.4 |
| 20260508010033 | 8 | 249 | 17.7 | 40.2 | 0.00 | 0.23 | 0.23 | 88 | 1001.4 |
| 20260508005531 | 8 | 231 | 12.9 | 25.7 | 0.00 | 0.23 | 0.23 | 88 | 1001.5 |
| 20260508005029 | 8 | 224 | 16.1 | 43.5 | 0.00 | 0.23 | 0.23 | 88 | 1001.6 |
| 20260508004528 | 8 | 236 | 16.1 | 30.6 | 0.00 | 0.23 | 0.23 | 88 | 1001.6 |
| 20260508004025 | 8 | 244 | 17.7 | 35.4 | 0.00 | 0.23 | 0.23 | 89 | 1001.6 |
| 20260508003524 | 9 | 228 | 16.1 | 35.4 | 0.00 | 0.23 | 0.23 | 89 | 1001.5 |
| 20260508003022 | 9 | 223 | 16.1 | 40.2 | 0.00 | 0.23 | 0.23 | 89 | 1001.5 |
| 20260508002520 | 9 | 243 | 17.7 | 53.1 | 0.00 | 0.23 | 0.23 | 89 | 1001.6 |
| 20260508002019 | 9 | 245 | 14.5 | 33.8 | 0.00 | 0.23 | 0.23 | 91 | 1001.5 |
| 20260508001516 | 9 | 241 | 16.1 | 43.5 | 0.00 | 0.23 | 0.23 | 91 | 1001.5 |
| 20260508001035 | 9 | 235 | 16.1 | 37.0 | 0.00 | 0.23 | 0.23 | 92 | 1001.5 |
| 20260508000534 | 10 | 229 | 16.1 | 41.8 | 0.00 | 0.23 | 0.23 | 92 | 1001.4 |
| 20260508000032 | 10 | 237 | 19.3 | 37.0 | 0.00 | 0.23 | 0.23 | 92 | 1001.4 |
| 20260507235530 | 10 | 244 | 14.5 | 29.0 | 0.00 | 0.25 | 0.23 | 92 | 1001.4 |
| 20260507235027 | 10 | 252 | 16.1 | 35.4 | 0.00 | 0.25 | 0.23 | 92 | 1001.4 |
| 20260507234526 | 10 | 244 | 12.9 | 29.0 | 0.00 | 0.28 | 0.23 | 92 | 1001.4 |
| 20260507234024 | 10 | 235 | 12.9 | 33.8 | 0.00 | 0.28 | 0.23 | 93 | 1001.2 |
| 20260507233522 | 10 | 247 | 12.9 | 25.7 | 0.00 | 0.28 | 0.23 | 93 | 1001.2 |
| 20260507233021 | 10 | 236 | 14.5 | 37.0 | 0.00 | 0.30 | 0.23 | 94 | 1001.1 |
| 20260507232519 | 10 | 247 | 11.3 | 24.1 | 0.00 | 0.30 | 0.23 | 95 | 1001.0 |
| 20260507232016 | 10 | 246 | 9.7 | 22.5 | 0.00 | 0.30 | 0.23 | 95 | 1000.9 |
| 20260507231535 | 10 | 233 | 12.9 | 30.6 | 0.00 | 0.30 | 0.23 | 95 | 1000.8 |
| 20260507231033 | 10 | 252 | 12.9 | 25.7 | 0.00 | 0.30 | 0.23 | 95 | 1000.8 |
| 20260507230532 | 10 | 247 | 14.5 | 35.4 | 0.00 | 0.30 | 0.23 | 95 | 1000.7 |
| 20260507230030 | 10 | 244 | 11.3 | 25.7 | 0.00 | 0.30 | 0.23 | 95 | 1000.7 |
| 20260507225528 | 10 | 229 | 12.9 | 38.6 | 0.03 | 0.30 | 0.23 | 95 | 1000.6 |
| 20260507225026 | 10 | 251 | 17.7 | 35.4 | 0.05 | 0.30 | 0.23 | 96 | 1000.6 |
| 20260507224524 | 10 | 238 | 12.9 | 33.8 | 0.05 | 0.30 | 0.23 | 96 | 1000.4 |
| 20260507224022 | 10 | 250 | 11.3 | 29.0 | 0.08 | 0.30 | 0.23 | 96 | 1000.5 |
| 20260507223521 | 10 | 239 | 14.5 | 29.0 | 0.08 | 0.30 | 0.23 | 96 | 1000.5 |
| 20260507223018 | 10 | 243 | 14.5 | 25.7 | 0.08 | 0.30 | 0.23 | 96 | 1000.4 |
| 20260507222517 | 10 | 226 | 12.9 | 27.4 | 0.08 | 0.30 | 0.23 | 97 | 1000.3 |
| 20260507222035 | 10 | 227 | 11.3 | 30.6 | 0.08 | 0.30 | 0.23 | 98 | 1000.3 |
| 20260507221533 | 10 | 241 | 12.9 | 33.8 | 0.08 | 0.30 | 0.23 | 98 | 1000.3 |
| 20260507221031 | 10 | 240 | 11.3 | 25.7 | 0.08 | 0.30 | 0.23 | 98 | 1000.3 |
| 20260507220529 | 10 | 231 | 14.5 | 30.6 | 0.08 | 0.30 | 0.23 | 98 | 1000.1 |
| 20260507220028 | 10 | 241 | 12.9 | 29.0 | 0.08 | 0.28 | 0.23 | 98 | 1000.1 |
| 20260507215524 | 11 | 250 | 12.9 | 29.0 | 0.05 | 0.28 | 0.20 | 97 | 1000.0 |
| 20260507215023 | 11 | 227 | 12.9 | 35.4 | 0.03 | 0.25 | 0.18 | 97 | 1000.0 |
| 20260507214521 | 11 | 254 | 16.1 | 35.4 | 0.03 | 0.23 | 0.18 | 97 | 1000.0 |
| 20260507214018 | 11 | 254 | 12.9 | 27.4 | 0.00 | 0.23 | 0.15 | 96 | 1000.0 |
| 20260507213516 | 11 | 237 | 8.0 | 24.1 | 0.00 | 0.23 | 0.15 | 96 | 999.9 |
| 20260507213034 | 11 | 242 | 12.9 | 30.6 | 0.00 | 0.23 | 0.15 | 97 | 999.9 |
| 20260507212532 | 11 | 232 | 12.9 | 27.4 | 0.00 | 0.23 | 0.15 | 97 | 999.8 |
| 20260507212030 | 11 | 224 | 11.3 | 29.0 | 0.00 | 0.23 | 0.15 | 97 | 999.9 |
| 20260507211528 | 11 | 241 | 9.7 | 25.7 | 0.00 | 0.23 | 0.15 | 97 | 999.7 |
| 20260507211026 | 11 | 228 | 12.9 | 29.0 | 0.03 | 0.23 | 0.15 | 97 | 999.7 |
| 20260507210524 | 11 | 238 | 12.9 | 30.6 | 0.03 | 0.23 | 0.15 | 97 | 999.8 |
| 20260507210023 | 11 | 241 | 12.9 | 27.4 | 0.03 | 0.23 | 0.15 | 98 | 999.8 |
| 20260507205520 | 11 | 238 | 12.9 | 29.0 | 0.03 | 0.23 | 0.15 | 98 | 999.7 |
| 20260507205019 | 11 | 224 | 11.3 | 29.0 | 0.03 | 0.23 | 0.15 | 99 | 999.5 |
| 20260507204517 | 11 | 234 | 11.3 | 25.7 | 0.03 | 0.23 | 0.15 | 98 | 999.2 |
| 20260507204035 | 11 | 245 | 11.3 | 29.0 | 0.03 | 0.23 | 0.15 | 98 | 998.9 |
| 20260507203533 | 11 | 243 | 16.1 | 37.0 | 0.03 | 0.23 | 0.15 | 98 | 998.9 |
| 20260507203031 | 12 | 229 | 9.7 | 29.0 | 0.03 | 0.23 | 0.15 | 98 | 998.8 |
| 20260507202528 | 12 | 218 | 12.9 | 29.0 | 0.00 | 0.23 | 0.15 | 98 | 998.6 |
| 20260507202027 | 12 | 214 | 12.9 | 25.7 | 0.00 | 0.23 | 0.15 | 96 | 998.7 |
| 20260507201525 | 12 | 226 | 12.9 | 30.6 | 0.00 | 0.23 | 0.15 | 95 | 998.6 |
| 20260507201024 | 12 | 224 | 12.9 | 29.0 | 0.00 | 0.20 | 0.13 | 94 | 998.8 |
| 20260507200522 | 12 | 228 | 9.7 | 22.5 | 0.00 | 0.20 | 0.13 | 94 | 999.0 |
| 20260507200020 | 12 | 217 | 14.5 | 29.0 | 0.00 | 0.20 | 0.13 | 94 | 999.0 |
| 20260507195518 | 12 | 234 | 11.3 | 30.6 | 0.00 | 0.20 | 0.13 | 95 | 999.3 |
| 20260507195016 | 12 | 227 | 11.3 | 29.0 | 0.00 | 0.20 | 0.13 | 95 | 999.3 |
| 20260507194535 | 13 | 224 | 12.9 | 33.8 | 0.00 | 0.20 | 0.13 | 95 | 999.3 |
| 20260507194033 | 13 | 226 | 9.7 | 17.7 | 0.00 | 0.20 | 0.13 | 95 | 999.4 |
| 20260507193531 | 13 | 225 | 9.7 | 33.8 | 0.00 | 0.20 | 0.13 | 95 | 999.4 |
| 20260507193029 | 13 | 222 | 11.3 | 27.4 | 0.00 | 0.20 | 0.13 | 95 | 999.4 |
| 20260507192527 | 13 | 213 | 9.7 | 29.0 | 0.00 | 0.20 | 0.13 | 95 | 999.3 |
| 20260507192025 | 13 | 243 | 11.3 | 25.7 | 0.00 | 0.20 | 0.13 | 95 | 999.3 |
| 20260507191523 | 13 | 255 | 8.0 | 25.7 | 0.03 | 0.20 | 0.13 | 96 | 999.2 |
| 20260507191022 | 13 | 237 | 8.0 | 20.9 | 0.03 | 0.20 | 0.13 | 96 | 999.3 |
| 20260507190520 | 13 | 243 | 8.0 | 20.9 | 0.03 | 0.20 | 0.13 | 96 | 999.4 |
| 20260507190018 | 13 | 252 | 8.0 | 20.9 | 0.03 | 0.20 | 0.13 | 97 | 999.4 |
| 20260507185536 | 13 | 233 | 6.4 | 17.7 | 0.03 | 0.20 | 0.13 | 97 | 999.4 |